Location: Eastlake (historical)
(39.0077°N, 122.6678°W)
Time: 16:39:05
(UTC+00:00)

H-2A R/B - Visible Passes

Search period start: 16 April 2021 00:00
Search period end: 26 April 2021 00:00
Orbit: 501 x 538 km, 97.3° (Epoch: 12 March)

Date Brightness Start Highest point End Pass type
(mag) Time Alt. Az. Time Alt. Az. Time Alt. Az.
16 Apr 5.7 12:37:26 10° NE 12:39:38 15° E 12:41:49 10° SE visible
22 Apr 5.5 12:48:11 10° NE 12:51:02 21° E 12:53:52 10° SE visible
23 Apr 5.7 12:35:04 10° ENE 12:37:07 14° E 12:39:10 10° SE visible
